Tracking 19245 objects as of 21-Aug-2018
HD Live streaming from Space Station
objects crossing your sky now

COSMOS 507

Track COSMOS 507 now!
10-day predictions
COSMOS 507 is classified as:


NORAD ID: 6120
Int'l Code: 1972-057D
Perigee: 1,418.1 km
Apogee: 1,503.3 km
Inclination: 74.0 °
Period: 115.0 minutes
Semi major axis: 7831 km
RCS: 0.7026 m2 (medium)
Launch date: July 20, 1972
Source: Commonwealth of Independent States (former USSR) (CIS)
Launch site: PLESETSK MISSILE AND SPACE COMPLEX (PKMTR)
aabbcc
Your satellite tracking list
Your tracking list is empty




NASA's NSSDC Master Catalog

Two Line Element Set (TLE):
1  6120U 72057D   18232.54676705 -.00000006 +00000-0 +63233-4 0  9994
2  6120 074.0264 064.5974 0054394 243.1214 146.1716 12.52608428107126
Source of the keplerian elements: AFSPC